Location: Chantarel
(45.1638°N, 1.7873°E)
Time: 16:36:04
(UTC+00:00)

Cosmos 1602 - Pass Details

Date: 03 March 2021
Orbit: 512 x 534 km, 82.5° (Epoch: 15 April)

Event Time Altitude Azimuth Distance (km) Brightness Sun altitude
Rises 18:38:55 0° 192° (SSW) 2,647 7.4 -10.6°
Reaches altitude 10° 18:41:03 10° 194° (SSW) 1,767 6.6 -11.0°
Maximum altitude 18:44:55 72° 280° (W) 563 4.0 -11.7°
Drops below altitude 10° 18:48:51 10° 5° (N) 1,793 6.4 -12.4°
Sets 18:51:02 0° 7° (N) 2,691 7.3 -12.8°
